Flight Track Log - Related Links

Times and Time Zones

All times are in EST time to prevent confusion due to time zone crossing. See the EJA941 flight status page for this flight to view local times or setup timezone preferences in your user account.

Time Position Orientation Groundspeed Altitude Reporting Facility
EST Latitude Longitude Course Direction KTS MPH feet Rate Location/Type
07:19PM 32.4478 -115.2681 301° West 437 503 43,000  Level Los Angeles Center
07:20PM 32.5097 -115.3914 301° West 437 503 43,000  Level Los Angeles Center
07:21PM 32.5742 -115.5133 302° West 438 504 43,000  Level Los Angeles Center
07:22PM 32.6414 -115.6344 303° West 441 507 43,000  Level Los Angeles Center
07:23PM 32.7061 -115.7575 302° West 442 509 43,000 -1,065 Level Los Angeles Center
07:24PM 32.7819 -115.8994 302° West 424 488 40,800 -2,565 Descending Los Angeles Center
07:25PM 32.8489 -116.0244 303° West 450 518 37,700 -3,145 Descending Los Angeles Center
07:26PM 32.9208 -116.1597 302° West 478 550 34,300 -3,484 Descending Los Angeles Center
07:27PM 33.0036 -116.3222 301° West 517 595 30,500 -3,648 Descending Los Angeles Center
07:28PM 33.0858 -116.4769 302° West 528 608 26,700 -3,216 Descending Los Angeles Center
07:29PM 33.1419 -116.6264 294° West 503 579 23,800 -3,242 Descending Los Angeles Center
07:30PM 33.1656 -116.7797 280° West 479 551 20,000 -2,952 Descending Los Angeles Center
07:31PM 33.1831 -116.9300 278° West 465 535 17,700 -2,371 Descending Los Angeles Center
07:32PM 33.2042 -117.1022 278° West 445 512 15,100 -2,376 Descending Los Angeles Center
07:33PM 33.2167 -117.2000 279° West 422 486 13,700 -2,000 Descending Southern California TRACON
07:34PM 33.2333 -117.3167 280° West 432 497 12,000 -1,400 Descending Southern California TRACON
07:35PM 33.2500 -117.4667 278° West 404 465 10,900 -952 Descending Southern California TRACON
07:36PM 33.2500 -117.6000 270° West 397 457 10,000 -600 Descending Southern California TRACON
07:37PM 33.2536 -117.6406 276° West 403 464 10,000 -848 Level Los Angeles Center
07:38PM 33.2950 -117.7222 301° West 329 379 8,700 -1,452 Descending Los Angeles Center
07:39PM 33.3764 -117.7803 329° Northwest 291 335 7,000 -823 Descending Los Angeles Center
07:40PM 33.4458 -117.8267 331° Northwest 286 329 7,000  Level Los Angeles Center
07:41PM 33.5161 -117.8742 331° Northwest 289 333 7,000  Level Los Angeles Center
07:42PM 33.5847 -117.9203 331° Northwest 286 329 7,000  Level Los Angeles Center
07:43PM 33.6517 -117.9650 331° Northwest 280 322 7,000  Level Los Angeles Center
07:44PM 33.7308 -118.0181 331° Northwest 275 316 7,000  Level Los Angeles Center
07:45PM 33.7928 -118.0567 333° Northwest 259 298 7,000 -96 Level Los Angeles Center
07:46PM 33.8567 -118.0714 349° North 238 274 6,800 -677 Descending Los Angeles Center
07:47PM 33.9183 -118.0858 349° North 231 266 5,600 -1,306 Descending Los Angeles Center
07:48PM 33.9586 -118.1586 304° West 234 269 4,100 -1,403 Descending Los Angeles Center
07:49PM 33.9539 -118.2250 265° West 211 243 2,700 -1,113 Descending Los Angeles Center
07:50PM 33.9486 -118.2803 263° West 188 216 1,800 -871 Descending Los Angeles Center
07:51PM 33.9425 -118.3322 262° West 171 197 900 -726 Descending Los Angeles Center
07:52PM 33.9392 -118.3722 264° West 140 161 300 -581 Descending Los Angeles Center

Login

Don't have an account? Register now (free) for customized features, flight alerts, and more!